Location: Csohesd
(46.2500°N, 22.6167°E)
Time: 07:24:56
(UTC+00:00)

ISS - Visible Passes

Search period start: 02 December 2022 00:00
Search period end: 12 December 2022 00:00
Orbit: 414 x 421 km, 51.6° (Epoch: 02 December)

Date Brightness Start Highest point End Pass type
(mag) Time Alt. Az. Time Alt. Az. Time Alt. Az.
02 Dec -3.5 16:05:35 10° WNW 16:08:52 52° NNE 16:10:15 29° E visible
02 Dec -0.6 17:42:30 10° WNW 17:43:12 15° W 17:43:12 15° W visible
03 Dec -3.2 15:17:31 10° WNW 15:20:44 40° NNE 15:23:55 10° E visible
03 Dec -3.1 16:54:19 10° WNW 16:57:27 51° SW 16:57:27 51° SW visible
04 Dec -3.8 16:06:12 10° WNW 16:09:33 81° SSW 16:11:53 18° ESE visible
04 Dec -0.5 17:44:04 10° WSW 17:44:51 12° WSW 17:44:51 12° WSW visible
05 Dec -3.8 15:18:08 10° WNW 15:21:29 69° NNE 15:24:49 10° ESE visible
05 Dec -1.4 16:55:21 10° W 16:57:59 22° SW 16:59:34 16° S visible
06 Dec -2.1 16:06:59 10° WNW 16:10:04 34° SW 16:13:07 10° SSE visible
07 Dec -2.9 15:18:48 10° WNW 15:22:05 54° SSW 15:25:21 10° SE visible
08 Dec -0.6 16:08:30 10° W 16:10:22 14° SW 16:12:15 10° SSW visible
09 Dec -0.9 15:19:48 10° W 15:22:30 22° SW 15:25:10 10° SSE visible
